{"data":{"norad_id":53586,"intl_designator":"2022-102A","name":"CHUANGXIN 16A (CX-16A)","alt_names":[],"object_type":"PAYLOAD","status":"ACTIVE","operator":null,"country":"PRC","launch_date":"2022-08-23","launch_site_code":"XICLF","launch_vehicle":null,"mission":null,"orbit_class":"UNKNOWN","rcs_meters":null,"size_class":null,"mass_kg":null,"dimensions":null,"purposes":[],"wikipedia_slug":null,"has_3d_model":false,"image_url":null,"decayed_at":null,"tle_current":{"epoch":"2026-05-25T04:37:27.671232Z","epoch_age_seconds":65281,"freshness":"FRESH","line1":"1 53586U 22102A   26145.19268138  .00001765  00000+0  10806-3 0  9996","line2":"2 53586  28.9943 116.5038 0005012 128.3275 231.7775 15.05839959206053","mean_motion":15.05839959,"eccentricity":0.0005012,"inclination_deg":28.9943,"raan_deg":116.5038,"arg_perigee_deg":128.3275,"mean_anomaly_deg":231.7775,"bstar":0.00010806,"rev_number":20605,"period_min":95.627692132455,"perigee_km":545.45668964759,"apogee_km":552.40038013977,"semimajor_km":6927.0655348937,"source":"CELESTRAK","updated_at":"2026-05-25T13:37:58.258967Z"}}}